Location: *
(60.1759°S, 155.0663°W)
Time: 14:20:47
(UTC+00:00)

COSMOS 2428 - Pass Details

Date: 17 September 2019
Orbit: 846 x 856 km, 70.9° (Epoch: 15 October)

Event Time Altitude Azimuth Distance (km) Brightness Sun altitude
Rises 14:27:25 0° 233° (SW) 3,468 5.6 -15.0°
Reaches altitude 10° 14:30:07 10° 224° (SW) 2,530 5.0 -14.6°
Maximum altitude 14:35:27 36° 158° (SSE) 1,368 4.2 -14.0°
Drops below altitude 10° 14:40:46 10° 92° (E) 2,521 6.4 -13.4°
Sets 14:43:27 0° 83° (E) 3,454 7.1 -13.1°
